OBJECT AF, 69009

Orbit data source: Space-Track

You're viewing an Uncataloged Satellite

Recently launched and/or uncataloged satellites may have evolving metadata. Metadata may include but not limited to: Owner, Maufacturer, Bus, Motor, and Mission.

OBJECT AF, 69009 is a satellite in SSO that was launched on Sun, 03 May 2026 UTC launched from the Air Force Western Test Range (AFWTR). Unknown objects in Earth's orbit typically refer to objects detected orbiting the Earth but have not yet been identified or cataloged. These objects could be anything from previously untracked satellites, spent rocket stages, debris from satellite collisions, or even natural meteoroids temporarily captured by Earth's gravity.

Loading next visibility...
Identifier
69009, 2026-100AF
Orbit
SSO
Country
Flag of TBDTBD
Related business
None
Manufacturer
Unknown
Mission
Operational spacecraft
Bus & Motor
Unknown
Mass
Unknown
Launch date (UTC)
2026-05-03 (1 week ago)
Launch vehicle
Unknown
Launch site
Air Force Western Test Range (AFWTR)
Object type
Unknown
Shape & HBR
Unknown
Radar Cross Section
RCS unknown

Expand to show TLE details & history
Last TLE update: 9 hours ago

TLE from 9 hours ago
0 OBJECT AF
1 69009U 26100AF  26130.11676396  .00008155  00000-0  38805-3 0  9990
2 69009  97.4077  28.6143 0006858 107.9879 252.2104 15.19404588  1026
Epoch: 2026-05-10T02:48Z
TLE epoch observation values (Epoch: 2026-05-10T02:48:08.406Z)
Latitude
0.00002°
Longitude
118.65481°
Altitude
512.174 km
Speed
7.607 km/s
True Right ascension
01h 54m 27s
True Declination
0° 00' 00"
Sunlit
Object was in daylight at epoch
Visualization orbit readout
Latitude
Unknown
Longitude
Unknown
Altitude
Unknown
Speed
Unknown
Apparent Right ascension
Unknown
Apparent Declination
Unknown
Sunlit
N/A
Visualization observer readout
Local Sidereal Time
19:44:07
Azimuth
Unknown
Elevation
Unknown
Doppler factor
Unknown
Orbital elements
Apogee altitude
509.326 km
Perigee altitude
499.885 km
Semi-major axis
6,882.743 km
Eccentricity
0.00069
Inclination
97.4077°
RAAN
28.6143°
Arg. of periapsis
107.9879°
True anomaly
252.13559°
Mean anomaly
252.2104°
Eccentric anomaly
252.17299°
Mean motion
3.80103 °/min
Orbital period
94.71 mins
BSTAR
0.00038805
Loading maneuver chart data...
Computing Atmospheric mass density...
Loading historical data...
Loading historical data...
Loading historical data...
Loading historical data...
Loading historical data...
Loading historical data...
Loading historical data...

Documentation

Showing up to 5 results
|